GFSNIL_con_3kmhel_159.txt.gz
Helicity
136 156 152 151 142 114 88 37 62 39 42 28 15 -3 11 14 40 46 55 46 47 52
125 140 140 150 145 122 98 73 70 61 54 36 29 12 23 43 49 55 56 54 49 56
80 104 118 128 135 142 118 100 82 73 73 58 28 5 25 39 47 50 56 61 60 65
53 79 96 121 135 132 111 99 93 87 82 80 41 10 44 52 54 63 66 71 69 62
22 47 80 104 117 131 127 127 116 105 92 86 81 44 69 72 70 70 65 66 76 67
28 53 73 88 106 124 135 137 140 141 128 119 112 98 90 92 83 79 79 81 82 70
40 45 67 87 102 117 140 143 159 160 150 149 145 134 119 109 101 93 94 97 93 80
51 64 82 85 91 116 141 144 156 165 176 176 172 157 151 141 125 115 107 109 108 97
47 64 76 73 71 80 105 130 155 153 157 169 184 166 154 166 162 144 130 124 117 115
41 54 68 69 66 71 92 121 131 147 167 151 154 139 150 163 210 193 178 156 137 124
59 60 59 59 62 75 99 108 121 124 144 160 145 112 118 137 203 208 195 192 171 160
48 54 63 62 69 84 98 106 118 132 129 139 115 117 112 136 194 196 177 209 208 189
32 32 45 60 70 81 105 106 113 107 115 115 128 119 97 118 195 182 172 196 199 142
40 36 40 50 66 67 80 94 105 112 114 112 122 120 86 79 185 186 193 197 193 202

GFSNIL_con_3kmhel_162.txt.gz
Helicity
112 134 137 126 132 128 136 119 97 74 58 50 46 43 40 19 16 53 70 66 71 48
78 86 93 90 119 129 133 126 99 91 77 65 60 51 39 31 -0 36 47 62 59 57
60 44 55 68 87 106 113 125 118 111 104 87 77 67 63 41 19 42 48 56 57 64
21 19 32 47 58 85 83 111 122 135 136 126 114 92 86 62 38 55 66 75 75 71
8 16 31 37 42 60 79 110 127 143 149 145 142 132 122 104 85 78 79 80 84 79
17 21 34 33 53 69 86 104 123 145 148 148 150 149 143 133 120 112 107 101 98 96
25 27 29 35 48 67 68 83 117 152 163 161 165 165 156 151 141 134 127 123 122 115
30 39 42 46 61 62 64 75 96 124 144 155 167 163 169 175 163 150 135 135 134 132
49 48 52 56 63 72 78 81 85 104 117 123 144 126 124 166 188 178 168 148 151 150
45 52 62 64 63 65 66 66 72 83 97 104 118 89 97 120 182 184 175 170 171 153
61 60 58 52 49 52 55 54 59 67 76 85 91 74 78 108 184 197 172 178 181 173
49 50 51 50 45 46 41 52 59 68 75 79 88 87 83 113 165 167 148 169 173 180
41 36 41 40 42 45 52 56 62 65 72 69 79 89 83 104 153 148 147 142 147 105
45 36 35 48 52 42 41 46 54 57 65 71 74 87 84 80 121 148 147 143 147 161

GFSNIL_con_3kmhel_165.txt.gz
Helicity
74 86 84 78 75 75 70 60 62 81 93 80 74 57 43 39 36 27 7 0 9 16
65 58 55 42 45 55 49 57 58 74 91 91 91 78 65 62 45 40 24 25 29 29
76 60 40 32 24 20 27 36 47 64 92 93 97 98 91 81 68 58 41 39 36 44
70 56 39 24 14 32 47 50 52 69 84 99 104 116 120 102 89 81 60 52 60 53
47 34 18 15 32 46 52 65 60 66 80 95 110 115 125 116 112 99 88 78 76 64
28 27 33 37 46 54 59 60 65 73 85 99 112 125 128 128 111 111 106 99 95 79
47 48 44 48 54 59 67 65 67 74 71 91 109 119 117 123 122 119 123 122 117 104
76 76 68 67 71 73 76 78 79 77 78 82 100 112 110 118 116 113 111 126 131 128
66 68 65 61 65 68 68 66 61 63 62 68 89 83 80 105 122 124 123 119 117 127
57 54 60 63 66 67 63 60 58 57 58 55 63 57 59 80 124 138 132 130 137 134
66 59 58 57 57 54 52 52 52 54 58 52 60 56 64 75 90 103 101 106 103 104
68 63 65 61 59 52 43 48 47 49 49 52 63 62 60 68 84 87 85 101 97 101
63 56 52 43 43 33 29 36 46 50 51 52 61 67 63 61 82 80 91 88 93 81
46 43 35 39 28 33 35 37 40 44 53 57 60 69 71 69 75 86 86 92 100 106

GFSNIL_con_3kmhel_168.txt.gz
Helicity
57 52 46 46 53 54 53 50 47 50 55 60 70 75 69 59 48 42 41 34 42 39
80 77 74 61 53 50 39 42 32 35 43 51 71 81 82 73 60 57 52 46 36 29
84 80 82 74 59 50 44 39 30 40 50 53 69 83 92 93 78 70 67 68 55 36
81 74 71 68 58 50 51 40 43 57 63 61 65 81 96 100 95 94 83 77 70 50
57 50 49 59 63 61 53 56 59 69 69 65 67 79 95 101 112 106 100 85 78 56
26 36 47 71 83 81 75 70 72 71 69 70 73 78 87 101 103 107 104 98 93 76
33 44 56 93 87 74 78 74 74 77 78 80 78 75 79 92 98 95 99 98 98 89
44 58 72 93 85 80 75 71 66 63 64 70 72 77 72 79 83 83 81 85 89 91
44 52 60 67 64 67 72 71 74 69 66 66 66 70 65 60 74 76 78 79 82 86
64 62 66 61 56 61 65 67 72 70 71 72 72 82 63 56 63 67 71 71 77 84
76 76 71 57 51 54 63 68 70 68 67 60 60 67 58 59 50 50 52 59 67 74
82 74 67 60 58 61 60 59 60 56 56 57 61 74 62 59 52 52 55 62 64 66
81 68 60 58 51 48 42 51 51 48 42 47 47 61 65 69 61 58 64 65 66 68
60 57 46 45 44 46 44 37 37 37 36 41 57 63 70 72 65 67 72 74 78 81